Location: Ellingshausen
(50.5460°N, 10.4723°E)
Time: 01:01:17
(UTC+00:00)

BREEZE-M DEB (TANK) - Pass Details

Date: 18 January 2026
Orbit: 291 x 14648 km, 49.5° (Epoch: 18 February)

Event Time Altitude Azimuth Distance (km) Brightness Sun altitude
Rises 03:15:32 0° 289° (WNW) 12,580 8.8 -36.7°
Enters shadow 03:16:49 - 289° (WNW) 12,252 8.7 -36.5°
Exits shadow 03:49:29 59° 219° (SW) 1,681 4.4 -31.3°
Maximum altitude 03:49:31 59° 218° (SW) 1,675 4.4 -31.3°
Drops below altitude 10° 03:54:25 10° 138° (SE) 2,303 5.9 -30.6°
Sets 03:55:53 0° 133° (SE) 2,885 6.6 -30.3°
